[[{"header":{"parameterUnit":"m.s-1","parameterCategory":1,"la1":30.2991,"la2":30.254,"lo1":-89.0895,"lo2":-89.0444,"dy":0.0017,"dx":0.0017,"nx":28,"ny":28,"refTime":"2025-07-20T03:00:00:Z","depth":0,"parameterNumber":2,"parameterNumberName":"U-component_of_WINDS"},"data":[0,0,0,0,0,0,0,0,0,0,0,0,0,0,0,0,0,0,0,0,0,0,0,0,0,0,0,0,0,0,0,0,0,0,0,0,0,0,0,0,0,0,0,0,0,0,0,0,0,0,0,0,0,0,0,0,0,0,2.5526,2.5527,0,2.5643,2.5645,2.5646,2.5646,2.5645,2.5643,2.5642,2.5769,2.5774,2.5779,0,0,0,0,0,0,0,0,0,0,0,0,0,2.5309,2.5312,2.5525,2.5527,2.5528,2.5643,2.5645,2.5646,2.5646,2.5644,2.5643,2.5641,2.5768,2.5773,2.5779,0,0,0,0,0,0,0,0,0,0,0,0,0,2.5412,2.5314,2.5525,2.5542,2.5545,2.5643,2.5645,2.5647,2.5647,2.5644,2.5642,2.564,2.5766,2.5773,2.578,2.5871,0,0,2.5802,2.5805,0,0,0,0,0,0,0,0,2.5406,2.542,2.5538,2.5541,2.5544,2.5627,2.5615,2.5722,2.5647,2.5608,2.5641,2.5639,2.5724,2.5735,2.5762,2.5877,2.5883,2.5803,2.5807,2.581,2.5812,0,0,0,0,0,0,0,2.5399,2.5415,2.5572,2.554,2.5544,2.5546,2.5559,2.5635,2.5678,2.5611,2.5612,2.5625,2.5726,2.5755,2.5765,2.5885,2.5803,2.5809,2.5814,2.5816,2.6083,2.6086,0,0,0,0,0,0,2.5388,2.5409,2.5569,2.5576,2.5468,2.5552,2.5566,2.5603,2.5677,2.5686,2.5627,2.5625,2.5744,2.5757,2.577,2.5883,2.581,2.5817,2.5821,2.608,2.6084,2.6087,0,0,0,0,0,0,2.5383,2.5402,2.5564,2.5493,2.5513,2.5558,2.56,2.5607,2.5636,2.5689,2.5697,2.5649,2.5743,2.576,2.5846,2.5887,2.582,2.5827,2.6077,2.6081,2.6085,2.6109,0,0,0,0,0,0,2.5377,2.54,2.5433,2.5493,2.5517,2.5636,2.5603,2.5611,2.5648,2.5646,2.5712,2.5721,2.5742,2.5835,2.5853,2.5896,2.5833,2.6074,2.6079,2.6084,2.6105,2.6114,2.6121,0,0,0,0,0,2.5369,2.5436,2.5435,2.5454,2.5559,2.5638,2.5652,2.5673,2.5651,2.5686,2.5721,2.5718,2.588,2.5844,2.5864,2.591,2.6071,2.6077,2.6083,2.6101,2.6112,2.6121,0,0,0,0,0,0,2.5382,2.5444,2.5443,2.5532,2.5579,2.5638,2.5682,2.5684,2.574,2.5736,2.5763,2.5778,2.5865,2.5896,2.5855,2.6004,2.5973,2.5984,2.598,2.599,2.5998,2.5989,2.5839,0,0,0,0,0,2.5394,2.5451,2.5503,2.5577,2.56,2.5637,2.5672,2.5685,2.5736,2.5757,2.5797,2.5849,2.5912,2.5953,2.6013,2.6109,2.6125,2.6151,2.6159,2.6165,2.6175,2.623,2.6243,2.6107,2.6107,2.6107,0,0,2.5422,2.5463,2.5498,2.558,2.5618,2.5679,2.5654,2.5719,2.5765,2.5768,2.5851,2.5883,2.5943,2.6035,2.6078,2.6064,2.6216,2.6173,2.6178,2.6184,2.6238,2.6251,2.6262,2.6111,2.611,2.6109,0,0,2.5504,2.5539,2.5605,2.5644,2.5701,2.5726,2.5741,2.58,2.5821,2.5905,2.5909,2.5965,2.6072,2.6115,2.6151,2.625,2.6251,2.6269,2.6312,2.6365,2.6376,2.6386,2.6423,2.6436,2.6278,2.6278,2.6278,0,2.5531,2.562,2.5639,2.5704,2.5741,2.5745,2.5813,2.5851,2.5926,2.5953,2.5936,2.6071,2.6111,2.6215,2.6239,2.6267,2.6288,2.6262,2.6372,2.6382,2.6392,2.6428,2.6441,2.628,2.628,2.628,2.6279,0,2.5652,2.5714,2.5761,2.5831,2.5874,2.594,2.5972,2.6014,2.6023,2.605,2.6137,2.6186,2.6257,2.6282,2.6292,2.6388,2.6378,2.6366,2.6336,2.6406,2.6441,2.6454,2.6283,2.6282,2.6281,2.6281,0,0,2.5745,2.5826,2.5843,2.5876,2.594,2.599,2.6057,2.6125,2.6161,2.6213,2.6273,2.6363,2.6353,2.6394,2.641,2.6457,2.6535,2.644,2.6442,2.6457,2.6645,2.6654,2.6669,2.6535,2.6538,2.654,2.6641,0,2.5835,2.5952,2.5972,2.6076,2.6135,2.614,2.62,2.6247,2.6275,2.6331,2.6362,2.6426,2.6407,2.6432,2.6479,2.6515,2.6573,2.6508,2.6593,2.6596,2.6579,2.6687,2.6696,2.6788,2.6654,2.6656,2.6658,0,2.5954,2.6008,2.6118,2.6175,2.6201,2.6254,2.6318,2.6371,2.6426,2.6443,2.6489,2.6499,2.6573,2.6539,2.6642,2.6597,2.6634,2.6657,2.6661,2.6671,2.6632,2.6701,2.6818,2.6833,2.6679,2.6677,2.6676,0,2.6013,2.6113,2.6192,2.622,2.6289,2.6326,2.6357,2.641,2.645,2.6507,2.6534,2.6599,2.6636,2.6688,2.6717,2.6689,2.6819,2.6787,2.6837,2.6837,2.6865,2.6863,2.6991,2.6887,2.6886,2.6886,2.6886,0,2.6111,2.6179,2.6219,2.6268,2.6344,2.6368,2.6444,2.6475,2.6522,2.6579,2.6587,2.6641,2.6675,2.6735,2.6758,2.6841,2.6858,2.6875,2.6881,2.6875,2.6873,2.69,2.6895,2.689,2.6889,2.6888,2.6888,0,2.619,2.6219,2.6306,2.6364,2.638,2.6435,2.6486,2.6535,2.6562,2.6634,2.6653,2.6697,2.6767,2.6801,2.6889,2.6905,2.7,2.7,2.698,2.6983,2.7032,2.7027,2.7183,2.7205,2.7084,2.7085,2.7086,0,2.6251,2.6303,2.6366,2.6404,2.6435,2.6496,2.6537,2.6563,2.6605,2.6672,2.6714,2.6784,2.6842,2.6955,2.6997,2.7065,2.7068,2.7118,2.7079,2.7072,2.7071,2.7068,2.7074,2.7126,2.7127,2.7128,2.7129,0,2.6358,2.637,2.6426,2.6489,2.6536,2.6587,2.6638,2.6669,2.6703,2.6751,2.6822,2.6867,2.6956,2.7027,2.7098,2.7133,2.7138,2.714,2.7156,2.7151,2.7138,2.7147,2.7001,2.7137,2.7136,2.7136,2.7135,2.7135,2.6431,2.6477,2.6529,2.6593,2.6633,2.668,2.6729,2.6763,2.6821,2.6895,2.6907,2.6984,2.704,2.7135,2.7173,2.7235,2.7224,2.7246,2.7252,2.7257,2.726,2.7127,2.7248,2.7248,2.7247,2.7247,2.7247,0,2.6539,2.6572,2.663,2.67,2.675,2.6748,2.6804,2.6847,2.6913,2.6964,2.7021,2.7104,2.7173,2.722,2.729,2.7331,2.7335,2.7349,2.7347,2.7355,2.7266,2.7245,2.7344,2.7344,2.7344,2.7344,2.7344,2.7344,2.6601,2.668,2.6699,2.6799,2.6834,2.6906,2.6939,2.6983,2.7024,2.7116,2.7172,2.7201,2.7252,2.7326,2.7391,2.7403,2.7429,2.7443,2.7456,2.7371,2.7361,2.7352,2.7333,2.7449,2.7449,2.7541,2.7541,2.7542]},{"header":{"parameterUnit":"m.s-1","parameterCategory":1,"la1":30.2991,"la2":30.254,"lo1":-89.0895,"lo2":-89.0444,"dy":0.0017,"dx":0.0017,"nx":28,"ny":28,"refTime":"2025-07-20T03:00:00:Z","depth":0,"parameterNumber":3,"parameterNumberName":"V-component_of_WINDS"},"data":[0,0,0,0,0,0,0,0,0,0,0,0,0,0,0,0,0,0,0,0,0,0,0,0,0,0,0,0,0,0,0,0,0,0,0,0,0,0,0,0,0,0,0,0,0,0,0,0,0,0,0,0,0,0,0,0,0,0,1.7558,1.7559,0,1.7629,1.763,1.7631,1.7646,1.7645,1.7645,1.7644,1.7714,1.7717,1.7719,0,0,0,0,0,0,0,0,0,0,0,0,0,1.7427,1.743,1.7558,1.7559,1.7559,1.7629,1.763,1.7631,1.7646,1.7645,1.7645,1.7644,1.7714,1.7716,1.7719,0,0,0,0,0,0,0,0,0,0,0,0,0,1.749,1.743,1.7558,1.7575,1.7578,1.7629,1.763,1.7631,1.7646,1.7645,1.7644,1.7644,1.7713,1.7716,1.772,1.7758,0,0,1.7731,1.7732,0,0,0,0,0,0,0,0,1.7486,1.7495,1.7572,1.7574,1.7577,1.7628,1.761,1.7674,1.7646,1.762,1.7644,1.7643,1.7686,1.7692,1.7707,1.7761,1.7764,1.7731,1.7733,1.7735,1.7736,0,0,0,0,0,0,0,1.7482,1.7492,1.7586,1.7573,1.7576,1.7578,1.7586,1.7622,1.7656,1.7622,1.7623,1.7632,1.7687,1.7703,1.7709,1.7765,1.7731,1.7734,1.7736,1.7737,1.7849,1.7849,0,0,0,0,0,0,1.7475,1.7488,1.7584,1.7588,1.7529,1.7581,1.759,1.7612,1.7656,1.7662,1.7632,1.7632,1.7698,1.7704,1.7711,1.7756,1.7735,1.7738,1.774,1.7848,1.7849,1.785,0,0,0,0,0,0,1.7472,1.7484,1.7581,1.7538,1.7551,1.7584,1.7609,1.7614,1.763,1.7664,1.767,1.7643,1.7697,1.7706,1.7745,1.7759,1.7739,1.7743,1.7847,1.7848,1.7849,1.7847,0,0,0,0,0,0,1.7468,1.7482,1.7499,1.7539,1.7553,1.7616,1.761,1.7616,1.7637,1.7637,1.7675,1.7681,1.7697,1.774,1.7749,1.7763,1.7745,1.7846,1.7847,1.7849,1.7846,1.7848,1.785,0,0,0,0,0,1.7464,1.7496,1.75,1.7511,1.7575,1.7616,1.7625,1.7644,1.7638,1.7653,1.7674,1.768,1.7755,1.7744,1.7754,1.7769,1.7845,1.7847,1.7849,1.7845,1.7848,1.785,0,0,0,0,0,0,1.7457,1.7502,1.7507,1.7553,1.7581,1.7619,1.764,1.7646,1.7676,1.7675,1.7696,1.7705,1.7741,1.7759,1.7745,1.7806,1.78,1.7804,1.7793,1.7796,1.7798,1.7792,1.7748,0,0,0,0,0,1.7461,1.7493,1.7529,1.7566,1.758,1.7607,1.7626,1.7638,1.7667,1.7679,1.7703,1.773,1.7759,1.7779,1.7808,1.7848,1.7855,1.7863,1.7865,1.7867,1.787,1.7888,1.7892,1.7856,1.7856,1.7856,0,0,1.747,1.7498,1.7517,1.7566,1.7589,1.7618,1.7617,1.765,1.7672,1.7684,1.7722,1.774,1.7771,1.781,1.7828,1.7826,1.7881,1.7869,1.787,1.7872,1.7891,1.7894,1.7897,1.7857,1.7857,1.7857,0,0,1.75,1.7526,1.7558,1.758,1.7615,1.7632,1.7639,1.7676,1.7688,1.7727,1.7735,1.776,1.7811,1.7832,1.785,1.7883,1.7888,1.7891,1.7901,1.7919,1.7922,1.7924,1.7934,1.7937,1.7894,1.7894,1.7894,0,1.7507,1.7554,1.7573,1.7605,1.7624,1.7636,1.7667,1.7687,1.7729,1.7741,1.7738,1.78,1.7823,1.7864,1.7872,1.7886,1.7893,1.7888,1.792,1.7923,1.7926,1.7935,1.7939,1.7894,1.7894,1.7894,1.7894,0,1.7558,1.759,1.7611,1.7651,1.7673,1.7704,1.7726,1.7745,1.7754,1.777,1.7806,1.7833,1.7866,1.7877,1.7886,1.7919,1.7916,1.7916,1.791,1.7929,1.7938,1.7942,1.7895,1.7895,1.7894,1.7894,0,0,1.7589,1.7636,1.7644,1.766,1.7697,1.7721,1.775,1.7783,1.7798,1.7825,1.7849,1.789,1.7889,1.7908,1.792,1.7936,1.7956,1.7933,1.7934,1.7935,1.7991,1.799,1.7994,1.796,1.796,1.7961,1.7987,0,1.7623,1.7678,1.7694,1.7739,1.7766,1.7776,1.7801,1.7824,1.7839,1.7863,1.788,1.7907,1.7906,1.7917,1.7933,1.7951,1.7968,1.7949,1.798,1.7981,1.7971,1.7999,1.7999,1.8023,1.7991,1.7992,1.7992,0,1.7671,1.7698,1.7745,1.7775,1.7787,1.781,1.7838,1.7862,1.7887,1.7897,1.7917,1.7926,1.7953,1.7945,1.7983,1.7969,1.7982,1.7992,1.7993,1.7997,1.7988,1.8002,1.8031,1.8034,1.7999,1.7998,1.7998,0,1.7686,1.7734,1.7768,1.7782,1.7818,1.7833,1.7848,1.7873,1.789,1.7915,1.7925,1.7953,1.7967,1.7987,1.8002,1.7995,1.8037,1.803,1.8043,1.8043,1.8052,1.8051,1.8083,1.8062,1.8062,1.8062,1.8062,0,1.7721,1.7749,1.7775,1.7795,1.7826,1.7842,1.7871,1.7887,1.7908,1.793,1.794,1.796,1.7978,1.8,1.8011,1.8039,1.8046,1.8052,1.8055,1.8051,1.805,1.806,1.8059,1.8063,1.8062,1.8062,1.8062,0,1.7744,1.7762,1.7799,1.7829,1.7837,1.7858,1.7882,1.7901,1.7915,1.7943,1.795,1.7972,1.7997,1.8014,1.8047,1.8054,1.8083,1.8086,1.8075,1.8076,1.8087,1.8086,1.8126,1.8131,1.8107,1.8108,1.8108,0,1.7765,1.7786,1.7818,1.7833,1.7849,1.7874,1.7891,1.7907,1.7923,1.7952,1.7966,1.7993,1.8015,1.8054,1.8072,1.8096,1.8099,1.8111,1.8102,1.8097,1.8097,1.8095,1.8096,1.8112,1.8113,1.8113,1.8113,0,1.78,1.7807,1.7831,1.7858,1.7878,1.7899,1.7921,1.7933,1.7952,1.7969,1.7996,1.8013,1.8045,1.807,1.8095,1.8108,1.8113,1.8115,1.8119,1.8115,1.8107,1.811,1.8078,1.8114,1.8114,1.8114,1.8114,1.8114,1.7821,1.7839,1.7863,1.7889,1.7907,1.7926,1.7944,1.7959,1.7982,1.801,1.8017,1.8043,1.8065,1.8099,1.8112,1.8132,1.813,1.8137,1.8138,1.8139,1.8138,1.8104,1.8137,1.8137,1.8136,1.8136,1.8136,0,1.7854,1.787,1.7893,1.7922,1.7942,1.7944,1.7967,1.7983,1.8006,1.8026,1.8046,1.8075,1.8098,1.8116,1.8139,1.8151,1.8153,1.8156,1.8156,1.8158,1.8139,1.8133,1.8154,1.8154,1.8154,1.8154,1.8154,1.8154,1.7874,1.7904,1.7913,1.7951,1.7965,1.7992,1.8004,1.802,1.8036,1.8067,1.8086,1.8098,1.8116,1.814,1.816,1.8165,1.8172,1.8175,1.8179,1.8162,1.816,1.8158,1.8152,1.8177,1.8177,1.8196,1.8197,1.8197]}]]